Home > Weather > Clovis > Past weeks

Flag for USA Past Weather in Clovis, New Mexico, USA — Yesterday and Last 2 Weeks

Now
87 °F

Sunny.


Feels Like: 86 °F
Forecast: 67 / 92 °F
Wind: 3 mph from Northwest

Location: Cannon Air Force Base / Clovis

Current Time: Jul 25, 2016 at 11:50:32 AM

Latest Report: Jul 25, 2016 at 10:58 AM


Visibility: 10 mi

Pressure: 29.98 "Hg (25.90 "Hg at 1300m altitude)

Humidity: 37%

Dew Point: 58 °F

Location of ClovisLocation

Past Weather in Clovis — Graph

°F

Clovis Temperature Yesterday

Maximum temperature yesterday: 96 °F (at 3:58 PM)
Minimum temperature yesterday: 70 °F (at 3:58 AM)
Average temperature yesterday: 83 °F

High & Low Weather Summary for the Past Weeks

 TemperatureHumidityPressure
High104 °F (Jul 13, 3:58 PM)100% (Jul 16, 3:58 AM)30.22 "Hg (Jul 16, 3:58 AM)
Low63 °F (Jul 16, 5:58 AM)6% (Jul 11, 4:58 PM)29.60 "Hg (Jul 11, 5:58 PM)
Average83 °F38%29.89 "Hg
* Reported Jul 10 9:58 AM — Jul 25 9:58 AM, Clovis, Weather by CustomWeather, © 2016

Note: Actual official high and low records may vary slightly from our data, if they occured in-between our weather recording intervals... More about our weather records

Advertising

Clovis Weather History for the Previous 24 Hours

Scroll right to see more
 ConditionsComfort  
Time TempWeatherWind HumidityBarometerVisibility
9:58 AM
Mon, Jul 25
84 °FSunny.2 mph44%29.99 "Hg10 mi
8:58 AM80 °FSunny.2 mph52%29.99 "Hg10 mi
7:58 AM75 °FSunny.9 mph61%29.99 "Hg10 mi
6:58 AM70 °FClear.10 mph69%29.98 "Hg10 mi
5:58 AM69 °FClear.7 mph73%29.97 "Hg10 mi
4:58 AM69 °FClear.14 mph70%29.96 "Hg10 mi
3:58 AM69 °FClear.9 mph70%29.94 "Hg10 mi
2:58 AM69 °FClear.8 mph68%29.95 "Hg10 mi
1:58 AM71 °FClear.9 mph63%29.95 "Hg10 mi
12:58 AM72 °FClear.9 mph60%29.95 "Hg10 mi
11:58 PM
Sun, Jul 24
74 °FClear.15 mph56%29.96 "Hg10 mi
10:58 PM76 °FClear.14 mph54%29.97 "Hg10 mi
9:58 PM79 °FPartly cloudy.17 mph47%29.95 "Hg10 mi
8:58 PM81 °FScattered clouds.7 mph36%29.90 "Hg10 mi
7:58 PM86 °FSunny.8 mph30%29.88 "Hg10 mi
6:58 PM92 °FSunny.10 mph23%29.84 "Hg10 mi
5:58 PM95 °FSunny.13 mph20%29.83 "Hg10 mi
4:58 PM96 °FSunny.16 mph20%29.83 "Hg10 mi
3:58 PM96 °FSunny.13 mph20%29.84 "Hg10 mi
2:58 PM96 °FSunny.15 mph23%29.86 "Hg10 mi
1:58 PM95 °FSunny.13 mph24%29.88 "Hg10 mi
12:58 PM94 °FSunny.15 mph26%29.90 "Hg10 mi
11:58 AM92 °FPassing clouds.7 mph29%29.91 "Hg10 mi
Weather by CustomWeather, © 2016

See weather overviewHow to use our weather pages